User: anonymous   Login
Location: Unspecified
(0.0000°N, 0.0000°E)
Time: 05:48:39
(UTC+00:00)
Language:

Tiangong 1 - Orbit

View from above orbital plane
View from above orbital plane
View from above satellite
View from above satellite

Ground track
Ground track

The orbit data is extracted from the following two-line orbital elements,

1 37820U 11053A   15208.72934068  .00013509  00000-0  14892-3 0  9990
2 37820 042.7665 032.7787 0014614 303.3676 169.6564 15.62846503219661
Epoch (UTC): 27 July 2015 17:30:15
Eccentricity: 0.0014614
inclination: 42.7665°
perigee height: 369 km
apogee height: 389 km
right ascension of ascending node: 32.7787°
argument of perigee: 303.3676°
revolutions per day: 15.62846503
mean anomaly at epoch: 169.6564°
orbit number at epoch: 21966

The dashed part of the orbit path shows where the satellite is in the earth's shadow,  

DLR